sat.trackr.live / text

‹ back to catalog

SES-1

NORAD 36516 · 2010-016A

PAYLOAD ACTIVE UNKNOWN

§ Identity

Operator
Country
SES
Launch date
2010-04-24
Launch site
TYMSC
Launch vehicle
Mass (kg)
RCS (m²)
26.98

Purposes: comms

External: N2YO · Heavens-Above · Gunter

§ Orbital elements

Epoch: 2026-05-25T03:15:48.075840Z

Period
1,436.09 min
Inclination
0.0155°
Eccentricity
0.0002745
Mean motion
1.00272030 rev/d
Perigee alt
35,775.0 km
Apogee alt
35,798.1 km
Semi-major
42,164.7 km
B*
0.0000e+0
RAAN
313.1592°
Arg perigee
110.4116°
Mean anomaly
127.1008°
Rev number
5,880

§ Raw data

SES-11 36516U 10016A   26145.13597310 -.00000117  00000+0  00000+0 0  99942 36516   0.0155 313.1592 0002745 110.4116 127.1008  1.00272030 58805

JSON: /api/v1/satellites/36516 · /tle

For live sub-satellite position, see the globe view (requires WebGL).

§ Visibility from observer

Set your observer location to see the next 7 days of passes ≥ 10°. The values pass through the URL so the page stays shareable.

No JS? Fill the form by hand. The geolocation button needs JavaScript.